{"data":{"norad_id":82965,"intl_designator":"","name":"UNKNOWN","alt_names":[],"object_type":"UNKNOWN","status":"UNKNOWN","operator":null,"country":null,"launch_date":null,"launch_site_code":null,"launch_vehicle":null,"mission":null,"orbit_class":"UNKNOWN","rcs_meters":null,"size_class":null,"mass_kg":null,"dimensions":null,"purposes":[],"wikipedia_slug":null,"has_3d_model":false,"image_url":null,"decayed_at":null,"tle_current":{"epoch":"2026-05-05T17:01:30.025920Z","epoch_age_seconds":1737919,"freshness":"OLD","line1":"1 82965U          26125.70937530  .00000861  00000+0  12116-2 0  9997","line2":"2 82965 100.1067 214.8758 0003826 129.6972 230.4504 13.60331309544029","mean_motion":13.60331309,"eccentricity":0.0003826,"inclination_deg":100.1067,"raan_deg":214.8758,"arg_perigee_deg":129.6972,"mean_anomaly_deg":230.4504,"bstar":0.0012116,"rev_number":54402,"period_min":105.85656527001,"perigee_km":1031.6521937818,"apogee_km":1037.3243346339,"semimajor_km":7412.6252642078,"source":"CELESTRAK","updated_at":"2026-05-25T13:38:11.423399Z"}}}